Date,TemperatureHighF,TemperatureAvgF,TemperatureLowF,DewpointHighF,DewpointAvgF,DewpointLowF,HumidityHigh,HumidityAvg,HumidityLow,PressureMaxIn,PressureMinIn,WindSpeedMaxMPH,WindSpeedAvgMPH,GustSpeedMaxMPH,PrecipitationSumIn
2013-3-1,27.9,26.4,25.7,24.6,22.5,19.3,94,85,72,30.21,30.15,13,7,13,0.00
2013-3-2,41.5,28.9,21.9,27.0,20.5,13.8,95,72,53,30.30,30.12,14,5,14,0.00
2013-3-3,62.8,42.5,23.9,39.6,28.2,18.7,83,59,42,30.15,29.80,16,7,16,0.00
2013-3-4,64.4,51.8,40.5,43.7,38.5,30.6,72,61,46,29.85,29.62,18,7,18,0.00
2013-3-5,44.4,37.9,33.8,35.4,27.1,19.9,100,67,50,30.21,29.85,28,16,28,0.00
2013-3-6,42.6,35.4,31.1,24.8,23.0,21.6,70,61,49,30.24,30.21,6,2,6,0.00
2013-3-7,53.6,46.2,41.2,30.9,29.3,27.8,62,52,38,30.15,30.09,7,4,7,0.00
2013-3-8,68.5,51.4,38.3,45.1,36.6,28.9,79,58,43,30.21,30.00,17,8,17,0.00
2013-3-9,70.7,57.8,47.1,58.8,48.4,38.3,100,73,48,30.00,29.65,25,10,25,0.83
2013-3-10,55.4,45.8,29.7,55.4,45.4,29.5,100,98,83,29.88,29.62,22,10,22,0.33
2013-3-11,46.4,41.1,30.6,27.1,23.8,17.7,59,50,46,29.97,29.91,15,7,18,0.00
2013-3-12,52.5,45.9,39.0,30.6,26.1,21.1,65,46,43,30.27,30.15,17,10,19,0.00
2013-3-13,58.1,50.1,37.8,32.6,26.9,19.6,48,41,36,30.33,30.30,5,2,5,0.00
2013-3-14,73.0,62.3,37.0,55.8,44.6,21.5,95,55,38,30.21,30.03,20,5,20,0.00
2013-3-15,81.5,68.0,50.7,55.8,47.3,40.2,95,49,38,30.06,29.80,20,10,20,0.00
2013-3-16,78.3,64.8,43.3,50.9,46.0,36.5,80,52,38,29.88,29.77,18,9,18,0.00
2013-3-17,43.3,39.7,37.2,40.8,39.2,37.2,100,98,79,29.88,29.68,20,10,20,0.29
2013-3-18,57.2,49.5,38.7,35.1,30.1,24.6,58,47,43,29.97,29.85,17,6,17,0.00
2013-3-19,55.0,46.2,35.6,30.2,27.0,25.0,68,48,34,30.18,30.00,12,5,12,0.00
2013-3-20,44.1,30.6,26.6,30.2,15.7,12.0,89,55,37,30.30,30.06,5,2,6,0.00
2013-3-21,41.5,33.1,26.6,32.7,24.0,16.8,100,71,47,30.06,29.80,18,8,18,0.00
2013-3-22,39.4,35.4,32.5,37.0,34.5,31.4,100,97,88,29.91,29.80,14,6,14,0.17
2013-3-23,40.6,37.5,35.4,40.6,37.5,35.4,100,100,100,29.91,29.68,15,7,15,0.04
2013-3-24,37.9,32.8,27.9,37.9,30.2,19.9,100,91,70,30.06,29.62,26,12,26,0.17
2013-3-25,28.8,27.5,23.0,22.8,21.5,17.7,81,78,73,30.24,30.06,9,6,9,0.00
2013-3-26,50.2,36.3,19.9,30.6,23.5,16.4,100,62,47,30.39,30.21,9,4,11,0.00
2013-3-27,61.0,51.0,43.5,35.8,30.7,26.8,63,47,30,30.18,30.09,12,4,14,0.00
2013-3-28,73.2,57.5,43.7,51.9,41.5,31.7,66,55,47,30.18,30.06,15,6,15,0.00
2013-3-29,75.6,59.7,51.8,58.2,50.9,44.7,100,75,50,30.18,30.06,10,5,10,0.16
2013-3-30,73.6,59.0,52.5,57.1,53.0,49.4,100,83,51,30.09,29.85,18,6,18,0.46
2013-3-31,73.6,58.2,46.6,53.8,46.5,34.8,100,70,39,29.97,29.85,18,5,18,0.08